When you browse on this site, cookies collect data to enhance your experience and personalize the content and advertising you see.
Visit our Privacy Policy to learn more. By continuing to use the site, you agree to this use of cookies and data.
  • In United Kingdom
  • List of Countries
  • For 7 days
  • Water Temperature
  • Satellite Maps
  • Weather Map
  • Weather Widgets
  • user-avatar
    Login

    Hourly Weather Thimphu

    Today, 10 December, Monday

    Time Temperature Precipitation Wind Pressure Humidity
    00:00 -2°C° 0 mm 2 mps 520 mmHg 82%
    01:00 -2°C° 0 mm 2 mps 520 mmHg 81%
    02:00 -2°C° 0 mm 2 mps 520 mmHg 81%
    03:00 -3°C° 0 mm 2 mps 520 mmHg 80%
    04:00 -3°C° 0 mm 2 mps 520 mmHg 80%
    05:00 -3°C° 0 mm 2 mps 520 mmHg 79%
    06:00 -3°C° 0 mm 2 mps 520 mmHg 76%
    07:00 -1°C° 0 mm 2 mps 521 mmHg 68%
    08:00 +1°C° 0 mm 2 mps 523 mmHg 60%
    09:00 +3°C° 0 mm 2 mps 524 mmHg 53%
    10:00 +4°C° 0 mm 2 mps 524 mmHg 50%
    11:00 +5°C° 0 mm 2 mps 524 mmHg 48%
    12:00 +6°C° 0 mm 2 mps 525 mmHg 47%
    13:00 +5°C° 0.1 mm 3 mps 524 mmHg 50%
    14:00 +5°C° 0.1 mm 3 mps 524 mmHg 53%
    15:00 +4°C° 0.1 mm 3 mps 523 mmHg 56%
    16:00 +3°C° 0.1 mm 2 mps 522 mmHg 64%
    17:00 +2°C° 0.1 mm 2 mps 521 mmHg 73%
    18:00 -1°C° 0 mm 2 mps 521 mmHg 83%
    19:00 -2°C° 0 mm 2 mps 521 mmHg 81%
    20:00 -2°C° 0 mm 2 mps 521 mmHg 80%
    21:00 -2°C° 0 mm 2 mps 521 mmHg 79%
    22:00 -3°C° 0 mm 2 mps 521 mmHg 77%
    23:00 -3°C° 0 mm 2 mps 520 mmHg 75%

    Tomorrow, 11 December, Tuesday

    Time Temperature Precipitation Wind Pressure Humidity
    00:00 -3°C° 0 mm 2 mps 520 mmHg 73%
    01:00 -4°C° 0 mm 2 mps 520 mmHg 71%
    02:00 -4°C° 0 mm 2 mps 520 mmHg 68%
    03:00 -4°C° 0 mm 2 mps 520 mmHg 66%
    04:00 -4°C° 0 mm 2 mps 520 mmHg 64%
    05:00 -4°C° 0 mm 2 mps 519 mmHg 63%
    06:00 -5°C° 0 mm 2 mps 519 mmHg 61%
    07:00 -3°C° 0 mm 2 mps 521 mmHg 54%
    08:00 +1°C° 0 mm 2 mps 522 mmHg 47%
    09:00 +3°C° 0 mm 2 mps 524 mmHg 39%
    10:00 +4°C° 0 mm 2 mps 524 mmHg 37%
    11:00 +5°C° 0 mm 2 mps 525 mmHg 35%
    12:00 +5°C° 0 mm 3 mps 525 mmHg 32%
    13:00 +5°C° 0 mm 3 mps 524 mmHg 36%
    14:00 +4°C° 0 mm 3 mps 523 mmHg 39%
    15:00 +3°C° 0 mm 3 mps 523 mmHg 42%
    16:00 +1°C° 0.1 mm 3 mps 522 mmHg 52%
    17:00 -1°C° 0.1 mm 2 mps 521 mmHg 61%
    18:00 -3°C° 0.1 mm 2 mps 520 mmHg 71%
    19:00 -4°C° 0 mm 2 mps 520 mmHg 70%
    20:00 -4°C° 0 mm 2 mps 520 mmHg 69%
    21:00 -4°C° 0 mm 2 mps 520 mmHg 67%
    22:00 -5°C° 0 mm 2 mps 520 mmHg 65%
    23:00 -5°C° 0 mm 2 mps 520 mmHg 63%

    Day after tomorrow, 12 December, Wednesday

    Time Temperature Precipitation Wind Pressure Humidity
    00:00 -5°C° 0 mm 2 mps 520 mmHg 61%
    01:00 -5°C° 0 mm 2 mps 520 mmHg 59%
    02:00 -5°C° 0 mm 2 mps 520 mmHg 57%
    03:00 -6°C° 0 mm 2 mps 519 mmHg 55%
    04:00 -6°C° 0 mm 2 mps 519 mmHg 54%
    05:00 -6°C° 0 mm 2 mps 519 mmHg 52%
    06:00 -6°C° 0 mm 2 mps 519 mmHg 51%
    07:00 -4°C° 0 mm 2 mps 521 mmHg 45%
    08:00 -1°C° 0 mm 2 mps 523 mmHg 39%
    09:00 +2°C° 0 mm 2 mps 524 mmHg 33%
    10:00 +3°C° 0 mm 2 mps 525 mmHg 32%
    11:00 +4°C° 0 mm 2 mps 525 mmHg 30%
    12:00 +5°C° 0 mm 3 mps 526 mmHg 29%
    13:00 +5°C° 0 mm 3 mps 525 mmHg 32%
    14:00 +4°C° 0 mm 3 mps 524 mmHg 35%
    15:00 +4°C° 0 mm 3 mps 524 mmHg 38%
    16:00 +2°C° 0 mm 3 mps 522 mmHg 48%
    17:00 -1°C° 0 mm 2 mps 521 mmHg 59%
    18:00 -3°C° 0 mm 2 mps 520 mmHg 70%
    19:00 -3°C° 0 mm 2 mps 521 mmHg 69%
    20:00 -4°C° 0 mm 2 mps 521 mmHg 68%
    21:00 -4°C° 0 mm 2 mps 521 mmHg 67%
    22:00 -4°C° 0 mm 2 mps 521 mmHg 66%
    23:00 -4°C° 0 mm 2 mps 521 mmHg 64%

    13 December, Thursday

    Time Temperature Precipitation Wind Pressure Humidity
    00:00 -4°C° 0 mm 2 mps 521 mmHg 63%
    01:00 -5°C° 0 mm 2 mps 521 mmHg 61%
    02:00 -5°C° 0 mm 2 mps 521 mmHg 60%
    03:00 -5°C° 0 mm 2 mps 521 mmHg 59%
    04:00 -5°C° 0 mm 2 mps 521 mmHg 57%
    05:00 -5°C° 0 mm 2 mps 521 mmHg 55%
    06:00 -5°C° 0 mm 2 mps 521 mmHg 54%
    07:00 -3°C° 0 mm 2 mps 522 mmHg 47%
    08:00 -1°C° 0 mm 2 mps 524 mmHg 40%
    09:00 +3°C° 0 mm 2 mps 526 mmHg 33%
    10:00 +4°C° 0 mm 2 mps 526 mmHg 31%
    11:00 +4°C° 0 mm 3 mps 526 mmHg 30%
    12:00 +5°C° 0 mm 3 mps 526 mmHg 28%
    13:00 +5°C° 0 mm 3 mps 526 mmHg 31%
    14:00 +4°C° 0 mm 3 mps 525 mmHg 33%
    15:00 +4°C° 0 mm 3 mps 524 mmHg 36%
    16:00 +2°C° 0 mm 3 mps 523 mmHg 46%
    17:00 -1°C° 0 mm 2 mps 522 mmHg 55%
    18:00 -3°C° 0 mm 2 mps 521 mmHg 65%
    19:00 -4°C° 0 mm 2 mps 521 mmHg 63%
    20:00 -4°C° 0 mm 2 mps 521 mmHg 62%
    21:00 -4°C° 0 mm 2 mps 522 mmHg 60%
    22:00 -5°C° 0 mm 2 mps 521 mmHg 58%
    23:00 -5°C° 0 mm 2 mps 521 mmHg 56%

    14 December, Friday

    Time Temperature Precipitation Wind Pressure Humidity
    00:00 -5°C° 0 mm 2 mps 521 mmHg 54%
    01:00 -5°C° 0 mm 2 mps 521 mmHg 52%
    02:00 -5°C° 0 mm 2 mps 521 mmHg 50%
    03:00 -6°C° 0 mm 2 mps 521 mmHg 48%
    04:00 -6°C° 0 mm 2 mps 521 mmHg 46%
    05:00 -6°C° 0 mm 2 mps 521 mmHg 44%
    06:00 -6°C° 0 mm 2 mps 521 mmHg 41%
    07:00 -3°C° 0 mm 2 mps 522 mmHg 35%
    08:00 -1°C° 0 mm 2 mps 524 mmHg 30%
    09:00 +3°C° 0 mm 2 mps 526 mmHg 24%
    10:00 +4°C° 0 mm 2 mps 526 mmHg 23%
    11:00 +4°C° 0 mm 3 mps 526 mmHg 22%
    12:00 +5°C° 0 mm 3 mps 526 mmHg 21%
    13:00 +5°C° 0 mm 3 mps 526 mmHg 23%
    14:00 +5°C° 0 mm 3 mps 525 mmHg 26%
    15:00 +4°C° 0 mm 3 mps 524 mmHg 28%
    16:00 +2°C° 0 mm 3 mps 523 mmHg 36%
    17:00 -1°C° 0 mm 2 mps 522 mmHg 45%
    18:00 -4°C° 0 mm 2 mps 521 mmHg 53%
    19:00 -4°C° 0 mm 2 mps 522 mmHg 52%
    20:00 -4°C° 0 mm 2 mps 522 mmHg 52%
    21:00 -5°C° 0 mm 2 mps 522 mmHg 51%
    22:00 -5°C° 0 mm 2 mps 522 mmHg 51%
    23:00 -5°C° 0 mm 2 mps 522 mmHg 50%

    15 December, Saturday

    Time Temperature Precipitation Wind Pressure Humidity
    00:00 -5°C° 0 mm 2 mps 522 mmHg 50%
    01:00 -5°C° 0 mm 2 mps 522 mmHg 48%
    02:00 -5°C° 0 mm 2 mps 522 mmHg 47%
    03:00 -5°C° 0 mm 2 mps 521 mmHg 45%
    04:00 -5°C° 0 mm 2 mps 521 mmHg 43%
    05:00 -5°C° 0 mm 2 mps 521 mmHg 41%
    06:00 -5°C° 0 mm 2 mps 522 mmHg 39%
    07:00 -3°C° 0 mm 2 mps 523 mmHg 34%
    08:00 +1°C° 0 mm 2 mps 525 mmHg 28%
    09:00 +4°C° 0 mm 1 mps 527 mmHg 22%
    10:00 +5°C° 0 mm 2 mps 527 mmHg 21%
    11:00 +6°C° 0 mm 2 mps 528 mmHg 20%
    12:00 +7°C° 0 mm 2 mps 528 mmHg 19%
    13:00 +7°C° 0 mm 2 mps 527 mmHg 22%
    14:00 +7°C° 0 mm 2 mps 527 mmHg 24%
    15:00 +7°C° 0 mm 2 mps 526 mmHg 27%
    16:00 +4°C° 0 mm 2 mps 525 mmHg 36%
    17:00 +1°C° 0 mm 2 mps 524 mmHg 46%
    18:00 -2°C° 0 mm 2 mps 523 mmHg 55%
    19:00 -3°C° 0 mm 2 mps 523 mmHg 53%
    20:00 -3°C° 0 mm 2 mps 523 mmHg 51%
    21:00 -3°C° 0 mm 2 mps 523 mmHg 49%
    22:00 -3°C° 0 mm 2 mps 523 mmHg 47%
    23:00 -3°C° 0 mm 2 mps 523 mmHg 45%
    Show more